Carbondale, IL

5:18 PM CDT on July 24, 2017 (GMT -0500)
Southern Illinois

Weather History for KMDH - August, 2013

Change the Weather History Date:

Wednesday, August 28, 2013

  Actual Average Record
Temperature  
Mean Temperature 79 °F -  
Max Temperature 90 °F 87 °F 106 °F (1936)
Min Temperature 68 °F 62 °F 33 °F (1996)
Cooling Degree Days 14    
Growing Degree Days 29 (Base 50)    
Moisture  
Dew Point 70 °F    
Average Humidity 74    
Maximum Humidity 93    
Minimum Humidity 50    
Precipitation  
Precipitation 0.00 in - - ()
Sea Level Pressure  
Sea Level Pressure 30.02 in    
Wind  
Wind Speed 4 mph (WSW)    
Max Wind Speed 8 mph    
Max Gust Speed -    
Visibility 9 miles    
Events      
Averages and records for this station are not official NWS values.
T = Trace of Precipitation, MM = Missing Value Source: NWS Daily Summary

Daily Weather History Graph

Daily Weather History Graph

Search for Another Location

Airport or City:

Trip Planner

Search our weather history database for the weather conditions in past years. The results will help you decide how hot, cold, wet, or windy it might be!

Date:

Astronomy

Aug. 28, 2013 Rise Set
Actual Time 6:23 AM CDT 7:31 PM CDT
Civil Twilight 5:56 AM CDT 7:58 PM CDT
Nautical Twilight 5:24 AM CDT 8:30 PM CDT
Astronomical Twilight 4:50 AM CDT 9:04 PM CDT
Moon No Moon Rise 2:06 PM CDT (8/28)
Length of Visible Light 14h 01m
Length of Day
13h 07m
Waning Gibbous, 47% of the Moon is Illuminated
Aug 28
Waning Gibbous
Sep 5
New
Sep 12
First Quarter
Sep 19
Full
Sep 26
Last Quarter

Hourly Weather History & Observations

Time (CDT) Temp. Heat Index Dew Point Humidity Pressure Visibility Wind Dir Wind Speed Gust Speed Precip Events Conditions
12:52 AM 73.0 °F - 69.1 °F 87% 30.02 in 10.0 mi WSW 4.6 mph - N/A   Clear
1:52 AM 73.0 °F - 69.1 °F 87% 30.01 in 10.0 mi SW 3.5 mph - N/A   Clear
2:52 AM 73.0 °F - 69.1 °F 87% 30.01 in 9.0 mi SW 4.6 mph - N/A   Clear
3:52 AM 73.0 °F - 69.1 °F 87% 30.01 in 9.0 mi SW 4.6 mph - N/A   Clear
4:52 AM 72.0 °F - 68.0 °F 87% 30.02 in 8.0 mi Calm Calm - N/A   Clear
5:52 AM 69.1 °F - 66.0 °F 90% 30.03 in 7.0 mi Calm Calm - N/A   Clear
6:52 AM 68.0 °F - 66.0 °F 93% 30.05 in 4.0 mi Calm Calm - N/A   Clear
7:52 AM 75.0 °F - 70.0 °F 84% 30.05 in 8.0 mi Calm Calm - N/A   Clear
8:52 AM 79.0 °F - 71.1 °F 77% 30.04 in 10.0 mi West 4.6 mph - N/A   Clear
9:52 AM 82.0 °F 86.7 °F 72.0 °F 71% 30.04 in 10.0 mi West 3.5 mph - N/A   Clear
10:52 AM 84.9 °F 91.4 °F 73.0 °F 67% 30.04 in 10.0 mi West 4.6 mph - N/A   Clear
11:52 AM 88.0 °F 93.8 °F 71.1 °F 57% 30.04 in 10.0 mi West 6.9 mph - N/A   Clear
12:52 PM 89.1 °F 92.9 °F 68.0 °F 50% 30.03 in 10.0 mi West 8.1 mph - N/A   Clear
1:52 PM 90.0 °F 94.5 °F 69.1 °F 50% 30.02 in 10.0 mi WNW 6.9 mph - N/A   Scattered Clouds
2:52 PM 90.0 °F 95.4 °F 70.0 °F 52% 30.00 in 10.0 mi West 5.8 mph - N/A   Mostly Cloudy
3:52 PM 90.0 °F 94.5 °F 69.1 °F 50% 29.99 in 10.0 mi WNW 5.8 mph - N/A   Scattered Clouds
4:52 PM 89.1 °F 93.7 °F 69.1 °F 52% 29.99 in 10.0 mi WSW 6.9 mph - N/A   Scattered Clouds
5:52 PM 88.0 °F 92.1 °F 69.1 °F 53% 29.99 in 10.0 mi WSW 8.1 mph - N/A   Clear
6:52 PM 84.9 °F 90.1 °F 71.1 °F 63% 29.99 in 10.0 mi WSW 4.6 mph - N/A   Clear
7:52 PM 78.1 °F - 72.0 °F 81% 29.99 in 10.0 mi Calm Calm - N/A   Clear
8:52 PM 75.9 °F - 71.1 °F 85% 30.01 in 10.0 mi Calm Calm - N/A   Clear
9:52 PM 73.9 °F - 70.0 °F 87% 30.01 in 10.0 mi Calm Calm - N/A   Clear
10:52 PM 73.0 °F - 70.0 °F 90% 30.01 in 10.0 mi SSW 3.5 mph - N/A   Clear
11:52 PM 73.0 °F - 70.0 °F 90% 30.00 in 10.0 mi SW 4.6 mph - N/A   Clear